Retour au catalogue

STARLINK-2648

ActifCommunicationsVLEO
NORAD 48679·PAYLOAD·🇺🇸 United States

Lancé May 26, 2021 depuis Cape Canaveral Space Force Station

Loading…

Prochains Passages (prochaines 24 heures)

TLE

FraisSource: CelesTrak SupGP

Époque: Sep 15, 2026, 02:25 UTC

1 48679C 21044AT  26258.10118056  .00043438  00000+0  13972-2 0  2583
2 48679  53.1585 313.9488 0001125  82.3904 323.4076 15.31673379    15

Suivez STARLINK-2648 en temps réel avec AllMySat

Download on the App Store